VIR4 KJFK-EGLL

Flight info

Callsign VIR4
Flight time N/A
Altitude 37000
Route BETTE DCT ACK DCT TUSKY N501B ALLRY/M085F380 DCT 51N050W 53N040W 54N030W 54N020W DCT MALOT DCT GISTI/N0484F390 DCT EVRIN DCT JETZI DCT AMFUL DCT ORZEB/N0467F230 P2 SIRIC
Aircraft A35K/H-SDE2E3GHIJ3J4J5LM1ORWXY/LB1D1

Departure

Time 2026-05-08 22:49
Airport John F. Kennedy International Airport (KJFK)

Arrival

Time N/A
Airport London Heathrow Airport (EGLL)
Time Latitude Longitude Altitude Speed Heading
2026-05-08 21:57 40.64434 -73.77978 29 ft 0 kts 229°
2026-05-08 22:30 40.64441 -73.77967 27 ft 4 kts 234°
2026-05-08 22:30 40.64453 -73.77937 26 ft 4 kts 258°
2026-05-08 22:31 40.64455 -73.77902 26 ft 4 kts 279°
2026-05-08 22:31 40.64450 -73.77868 27 ft 4 kts 284°
2026-05-08 22:31 40.64442 -73.77834 28 ft 4 kts 290°
2026-05-08 22:31 40.64432 -73.77801 27 ft 4 kts 296°
2026-05-08 22:32 40.64419 -73.77770 27 ft 4 kts 301°
2026-05-08 22:32 40.64405 -73.77741 25 ft 4 kts 302°
2026-05-08 22:32 40.64388 -73.77713 27 ft 4 kts 320°
2026-05-08 22:32 40.64367 -73.77693 26 ft 4 kts 329°
2026-05-08 22:33 40.64344 -73.77675 26 ft 4 kts 330°
2026-05-08 22:33 40.64320 -73.77657 27 ft 4 kts 332°
2026-05-08 22:33 40.64297 -73.77641 26 ft 4 kts 332°
2026-05-08 22:33 40.64273 -73.77624 27 ft 4 kts 328°
2026-05-08 22:34 40.64251 -73.77604 28 ft 4 kts 325°
2026-05-08 22:34 40.64228 -73.77585 28 ft 4 kts 330°
2026-05-08 22:34 40.64204 -73.77568 28 ft 4 kts 334°
2026-05-08 22:34 40.64180 -73.77553 27 ft 4 kts 334°
2026-05-08 22:35 40.64156 -73.77536 28 ft 4 kts 327°
2026-05-08 22:35 40.64134 -73.77516 26 ft 4 kts 320°
2026-05-08 22:35 40.64115 -73.77495 26 ft 4 kts 333°
2026-05-08 22:35 40.64093 -73.77492 28 ft 4 kts 31°
2026-05-08 22:36 40.64072 -73.77514 28 ft 4 kts 43°
2026-05-08 22:36 40.64053 -73.77534 28 ft 1 kts 31°
2026-05-08 22:36 40.64053 -73.77535 28 ft 0 kts 31°
2026-05-08 22:41 40.64053 -73.77534 29 ft 1 kts 31°
2026-05-08 22:41 40.64065 -73.77525 29 ft 3 kts 31°
2026-05-08 22:41 40.64085 -73.77499 29 ft 4 kts 61°
2026-05-08 22:42 40.64078 -73.77457 28 ft 6 kts 118°
2026-05-08 22:42 40.64049 -73.77397 28 ft 9 kts 124°
2026-05-08 22:42 40.64009 -73.77324 27 ft 8 kts 127°
2026-05-08 22:42 40.63968 -73.77254 27 ft 11 kts 128°
2026-05-08 22:43 40.63918 -73.77169 28 ft 12 kts 128°
2026-05-08 22:43 40.63867 -73.77082 31 ft 12 kts 128°
2026-05-08 22:43 40.63817 -73.76998 31 ft 6 kts 127°
2026-05-08 22:43 40.63799 -73.76966 31 ft 5 kts 127°
2026-05-08 22:44 40.63767 -73.76926 32 ft 7 kts 151°
2026-05-08 22:44 40.63710 -73.76916 32 ft 10 kts 179°
2026-05-08 22:44 40.63636 -73.76918 32 ft 12 kts 181°
2026-05-08 22:44 40.63543 -73.76920 31 ft 15 kts 180°
2026-05-08 22:45 40.63453 -73.76929 29 ft 11 kts 187°
2026-05-08 22:45 40.63363 -73.76943 27 ft 13 kts 185°
2026-05-08 22:45 40.63297 -73.76946 27 ft 10 kts 181°
2026-05-08 22:45 40.63220 -73.76948 28 ft 12 kts 180°
2026-05-08 22:46 40.63130 -73.76961 28 ft 15 kts 194°
2026-05-08 22:46 40.63046 -73.77009 26 ft 12 kts 209°
2026-05-08 22:46 40.62973 -73.77065 28 ft 10 kts 210°
2026-05-08 22:46 40.62949 -73.77084 29 ft 2 kts 210°
2026-05-08 22:47 40.62931 -73.77098 29 ft 3 kts 211°
2026-05-08 22:47 40.62907 -73.77117 30 ft 5 kts 211°
2026-05-08 22:47 40.62870 -73.77146 30 ft 8 kts 211°
2026-05-08 22:47 40.62824 -73.77182 28 ft 0 kts 213°
2026-05-08 22:48 40.62818 -73.77192 29 ft 2 kts 230°
2026-05-08 22:48 40.62816 -73.77217 29 ft 3 kts 282°
2026-05-08 22:48 40.62833 -73.77251 30 ft 12 kts 301°
2026-05-08 22:48 40.62995 -73.77617 35 ft 81 kts 300°
2026-05-08 22:49 40.63398 -73.78497 28 ft 142 kts 300°
2026-05-08 22:49 40.64340 -73.81255 1039 ft 172 kts 270°
2026-05-08 22:49 40.63827 -73.82730 1609 ft 193 kts 229°
2026-05-08 22:50 40.62527 -73.83422 2037 ft 221 kts 184°
2026-05-08 22:50 40.61074 -73.82808 2722 ft 228 kts 146°
2026-05-08 22:50 40.60091 -73.81175 3436 ft 233 kts 112°
2026-05-08 22:50 40.59695 -73.79090 4063 ft 238 kts 98°
2026-05-08 22:51 40.59454 -73.76910 4698 ft 243 kts 97°
2026-05-08 22:51 40.59238 -73.74683 5310 ft 250 kts 97°
2026-05-08 22:51 40.59026 -73.72384 5944 ft 256 kts 97°
2026-05-08 22:51 40.58813 -73.70030 6594 ft 262 kts 97°
2026-05-08 22:52 40.58595 -73.67633 7311 ft 265 kts 97°
2026-05-08 22:52 40.58371 -73.65209 8053 ft 269 kts 96°
2026-05-08 22:52 40.58181 -73.62721 8625 ft 281 kts 91°
2026-05-08 22:52 40.58082 -73.60101 9206 ft 292 kts 91°
2026-05-08 22:53 40.57997 -73.57377 9810 ft 304 kts 91°
2026-05-08 22:53 40.57915 -73.54538 10342 ft 318 kts 90°
2026-05-08 22:53 40.57830 -73.51532 10683 ft 339 kts 90°
2026-05-08 22:53 40.57738 -73.48327 11000 ft 361 kts 89°
2026-05-08 22:54 40.57636 -73.44936 11354 ft 381 kts 91°
2026-05-08 22:54 40.57501 -73.41371 11706 ft 399 kts 91°
2026-05-08 22:54 40.57350 -73.37652 12098 ft 415 kts 91°
2026-05-08 22:54 40.57194 -73.33823 12710 ft 423 kts 90°
2026-05-08 22:55 40.57039 -73.29933 13366 ft 430 kts 90°
2026-05-08 22:55 40.56887 -73.25982 14037 ft 435 kts 89°
2026-05-08 22:55 40.56739 -73.22042 14629 ft 440 kts 89°
2026-05-08 22:55 40.56582 -73.17987 15231 ft 446 kts 90°
2026-05-08 22:56 40.56421 -73.13894 15848 ft 451 kts 90°
2026-05-08 22:56 40.56260 -73.09749 16461 ft 456 kts 90°
2026-05-08 22:56 40.56116 -73.05556 17074 ft 460 kts 88°
2026-05-08 22:56 40.56308 -73.01351 17686 ft 461 kts 77°
2026-05-08 22:57 40.56990 -72.97223 18298 ft 461 kts 70°
2026-05-08 22:57 40.57889 -72.93150 18839 ft 465 kts 67°
2026-05-08 22:57 40.58902 -72.89092 19376 ft 469 kts 66°
2026-05-08 22:57 40.59973 -72.85020 19958 ft 473 kts 65°
2026-05-08 22:58 40.61069 -72.80900 20523 ft 478 kts 65°
2026-05-08 22:58 40.62153 -72.76798 21106 ft 483 kts 66°